Watsonville, CA

11:59 AM PST on December 13, 2017 (GMT -0800)
Watsonville Municipal

Weather History for KWVI - May, 2014

Change the Weather History Date:

Thursday, May 1, 2014

  Actual Average Record
Temperature  
Mean Temperature 73 °F 57 °F  
Max Temperature 89 °F 68 °F 89 °F (2014)
Min Temperature 56 °F 46 °F 40 °F (2008)
Degree Days  
Heating Degree Days 0    
Month to date heating degree days 0  
Since 1 July heating degree days 2199  
Cooling Degree Days 8    
Month to date cooling degree days 8  
Year to date cooling degree days 14  
Growing Degree Days 23 (Base 50)    
Moisture  
Dew Point 47 °F    
Average Humidity 47    
Maximum Humidity 67    
Minimum Humidity 26    
Precipitation  
Precipitation 0.00 in - 0.29 in (1977)
Month to date precipitation 0.00  
Year to date precipitation 8.14  
Since 1 July precipitation 9.21  
Sea Level Pressure  
Sea Level Pressure 30.07 in    
Wind  
Wind Speed 3 mph (SW)    
Max Wind Speed 12 mph    
Max Gust Speed 14 mph    
Visibility 10 miles    
Events      
T = Trace of Precipitation, MM = Missing Value Source: NWS Daily Summary

Daily Weather History Graph

Daily Weather History Graph

Search for Another Location

Airport or City:

Trip Planner

Search our weather history database for the weather conditions in past years. The results will help you decide how hot, cold, wet, or windy it might be!

Date:

Astronomy

May. 01, 2014 Rise Set
Actual Time 6:12 AM PDT 7:56 PM PDT
Civil Twilight 5:44 AM PDT 8:24 PM PDT
Nautical Twilight 5:11 AM PDT 8:57 PM PDT
Astronomical Twilight 4:35 AM PDT 9:33 PM PDT
Moon 8:06 AM PDT (5/1) 10:32 PM PDT (5/1)
Length of Visible Light 14h 39m
Length of Day
13h 43m
Waxing Crescent, 7% of the Moon is Illuminated
May 1
Waxing Crescent
May 6
First Quarter
May 14
Full
May 21
Last Quarter
May 28
New

Hourly Weather History & Observations

Time (PDT) Temp. Dew Point Humidity Pressure Visibility Wind Dir Wind Speed Gust Speed Precip Events Conditions
12:53 AM 61.0 °F 44.1 °F 54% 30.05 in 10.0 mi NW 5.8 mph - N/A   Clear
1:53 AM 61.0 °F 43.0 °F 52% 30.05 in 10.0 mi NW 4.6 mph - N/A   Clear
2:53 AM 60.1 °F 43.0 °F 53% 30.03 in 10.0 mi NW 4.6 mph - N/A   Clear
3:53 AM 59.0 °F 43.0 °F 55% 30.03 in 10.0 mi Calm Calm - N/A   Clear
4:53 AM 57.9 °F 43.0 °F 58% 30.03 in 10.0 mi WNW 3.5 mph - N/A   Clear
5:53 AM 57.9 °F 43.0 °F 58% 30.04 in 10.0 mi WNW 3.5 mph - N/A   Clear
6:53 AM 57.9 °F 45.0 °F 62% 30.05 in 10.0 mi NNW 4.6 mph - N/A   Clear
7:53 AM 64.9 °F 46.0 °F 50% 30.06 in 10.0 mi Calm Calm - N/A   Clear
8:53 AM 71.1 °F 45.0 °F 39% 30.07 in 10.0 mi Calm Calm - N/A   Clear
9:53 AM 78.1 °F 45.0 °F 31% 30.08 in 10.0 mi Calm Calm - N/A   Clear
11:53 AM 84.9 °F 51.1 °F 31% 30.09 in 10.0 mi Calm Calm - N/A   Clear
12:53 PM 88.0 °F 51.1 °F 28% 30.08 in 10.0 mi South 4.6 mph - N/A   Clear
1:53 PM 89.1 °F 51.1 °F 27% 30.08 in 10.0 mi South 8.1 mph - N/A   Clear
2:53 PM 84.9 °F 50.0 °F 30% 30.08 in 10.0 mi South 8.1 mph - N/A   Clear
3:53 PM 82.0 °F 46.9 °F 29% 30.07 in 10.0 mi SSW 8.1 mph - N/A   Clear
4:53 PM 82.9 °F 45.0 °F 26% 30.06 in 10.0 mi SW 6.9 mph - N/A   Clear
5:53 PM 80.1 °F 46.9 °F 31% 30.07 in 10.0 mi South 3.5 mph - N/A   Clear
6:53 PM 71.1 °F 48.9 °F 45% 30.07 in 10.0 mi SE 5.8 mph - N/A   Clear
7:53 PM 64.0 °F 48.9 °F 58% 30.08 in 10.0 mi SSE 4.6 mph - N/A   Clear
8:53 PM 62.1 °F 46.9 °F 58% 30.08 in 10.0 mi South 3.5 mph - N/A   Clear
9:53 PM 62.1 °F 48.0 °F 60% 30.10 in 10.0 mi Calm Calm - N/A   Clear
10:53 PM 61.0 °F 48.9 °F 64% 30.10 in 10.0 mi Calm Calm - N/A   Clear
11:53 PM 59.0 °F 48.0 °F 67% 30.10 in 10.0 mi Calm Calm - N/A   Clear